RH
7 7 15 19 15 12 18 24 27 36 44 43 50 54 60 73 89 89 97 94 88 82 96 97 95 84 78 67 73 91 73 93 97 99 86 56 84 68 35 38 49 48 40 40 32 28 26
22 9 8 15 20 16 13 22 28 38 42 43 45 59 77 88 96 83 98 98 98 88 87 100 86 82 78 61 74 99 91 85 98 98 82 92 73 74 39 51 48 44 40 34 29 25 19
22 24 12 8 15 22 18 15 24 32 44 39 39 48 73 90 98 78 98 100 98 98 86 94 98 99 99 92 83 77 97 100 99 90 68 89 78 68 52 46 40 35 36 33 30 22 19
23 21 26 16 8 15 23 21 17 26 37 41 40 39 59 81 93 90 97 100 82 92 90 92 99 92 71 88 97 99 93 82 83 83 82 95 70 74 50 37 34 24 28 26 26 22 24
20 23 24 26 23 9 15 24 26 20 27 39 46 45 45 76 77 94 79 88 91 84 86 97 78 49 78 67 95 95 99 100 99 90 95 76 63 66 43 31 25 34 34 31 28 28 26
13 21 21 26 27 27 12 14 24 30 24 28 34 48 42 58 69 71 74 78 70 69 72 74 53 65 73 63 71 96 66 96 98 94 76 68 55 43 33 26 29 33 35 27 23 25 24
8 16 20 16 23 28 28 13 14 23 32 31 26 33 47 38 59 63 45 43 44 44 36 49 48 49 69 61 70 54 76 77 74 75 62 54 42 38 30 24 22 26 23 20 16 18 17
10 8 16 20 15 23 30 29 12 14 21 34 33 25 29 38 36 55 62 49 47 43 53 55 58 50 50 57 65 53 50 44 41 45 44 43 40 39 37 34 25 34 24 25 21 15 14
8 10 9 15 17 16 24 33 27 12 14 20 31 25 22 26 32 37 55 63 62 57 54 50 48 48 50 51 52 40 42 46 47 49 48 46 42 39 31 32 26 30 27 25 20 15 14
5 6 8 8 12 11 18 28 34 27 10 14 18 30 18 23 29 34 40 50 61 60 56 60 54 49 47 48 56 56 35 32 38 36 43 41 39 32 31 27 30 31 30 27 22 18 20
4 4 5 6 8 8 12 19 33 31 14 10 13 25 18 16 25 32 39 43 47 62 76 55 57 54 48 39 42 43 38 34 30 26 25 45 32 30 31 28 29 28 29 20 17 14 14
4 4 4 5 5 6 8 11 28 30 22 20 8 18 22 14 17 30 36 41 52 56 68 62 58 51 44 41 39 45 38 30 35 32 25 26 29 28 29 31 26 21 17 18 19 20 41
6 4 4 4 4 5 7 8 21 30 28 29 14 10 22 18 14 20 32 38 42 56 56 55 60 57 41 38 37 36 34 31 34 35 31 31 26 26 24 21 20 20 22 57 61 61 56
10 6 5 4 4 4 6 7 8 22 27 28 25 14 12 21 20 15 23 31 44 65 60 54 53 56 49 44 39 35 38 30 28 25 25 28 29 22 23 25 26 30 33 62 62 81 70
15 9 6 5 4 4 4 5 7 12 17 24 28 25 16 12 20 17 13 17 47 51 48 57 58 53 37 47 42 39 40 35 35 29 37 38 41 29 25 31 36 30 34 38 34 54 61
16 13 9 6 5 4 4 4 6 9 12 13 18 24 25 16 15 20 17 22 31 35 41 51 58 54 46 52 50 50 44 35 37 35 36 43 46 31 30 31 32 39 45 36 30 63 83
15 15 12 8 6 5 5 4 5 6 8 9 10 15 23 27 18 16 19 27 30 34 39 42 49 59 54 54 58 53 41 35 38 26 21 27 39 45 37 33 36 34 39 42 57 70 89
13 14 14 11 7 6 6 5 4 4 5 6 9 14 21 23 26 25 17 24 28 32 37 40 49 52 57 62 59 50 43 39 29 28 27 32 50 51 35 34 32 36 26 28 41 69 60
13 13 13 11 8 7 6 6 5 4 4 4 7 12 16 18 28 34 31 21 18 19 20 25 28 27 28 31 34 36 34 33 34 37 35 30 41 64 49 46 48 46 34 44 54 64 69
13 14 14 11 10 8 7 7 7 6 5 5 6 10 17 19 24 34 38 37 31 22 20 18 18 22 24 20 20 22 17 18 18 19 18 17 21 30 44 40 49 36 26 37 64 77 63
14 13 14 13 11 10 9 8 8 8 6 5 6 10 17 23 24 30 37 43 44 41 33 26 22 18 18 20 20 19 17 17 16 17 18 19 19 23 20 21 30 21 16 16 20 19 37
64 23 14 14 13 12 11 10 9 8 8 7 6 8 13 25 26 29 32 40 48 50 46 41 37 32 26 24 24 27 24 23 23 23 23 21 21 21 16 17 18 17 17 17 17 20 26
78 63 32 18 16 15 14 12 11 11 10 8 7 7 11 20 30 30 32 38 44 48 49 54 58 56 50 42 37 32 30 30 30 30 34 36 37 39 36 34 32 27 19 21 21 21 20
71 75 59 35 21 18 17 15 14 13 12 10 8 8 11 16 18 30 34 36 45 49 53 55 54 56 58 63 62 62 60 60 58 46 43 42 51 62 54 44 54 31 31 31 24 22 25
50 50 55 47 32 23 20 19 16 14 12 11 10 12 16 18 19 19 27 33 37 44 50 53 57 59 60 62 60 54 51 48 45 45 46 48 63 65 56 74 39 29 28 26 27 28 29
42 37 38 46 43 34 24 21 18 16 14 12 15 20 23 27 27 26 24 19 28 33 45 49 58 60 63 62 66 56 49 51 48 46 40 41 55 71 75 77 69 36 39 37 39 43 41
89 68 49 45 58 58 49 34 28 23 23 25 29 36 35 26 27 26 24 23 23 25 40 51 55 63 64 68 70 74 71 68 62 57 53 53 57 64 76 84 54 40 45 56 44 43 44
96 93 60 55 40 39 52 72 70 58 52 48 42 40 40 45 35 32 29 27 27 35 40 42 49 56 71 76 78 79 82 73 68 64 61 56 50 52 75 91 74 50 60 58 56 56 54
100 98 92 67 79 83 72 51 33 58 78 72 68 41 37 39 39 40 37 35 35 34 34 39 49 59 70 76 76 82 82 77 71 75 69 64 60 53 52 49 51 57 66 67 64 60 58
Wind_Speed
22 22 24 27 27 26 25 26 27 31 30 33 33 31 27 26 26 29 26 23 27 22 25 26 22 18 11 13 6 14 17 28 17 27 39 39 36 36 39 40 22 16 21 20 21 22 23
25 23 23 25 28 28 26 25 25 29 27 33 35 33 31 30 27 31 29 25 27 23 22 23 20 16 13 11 6 20 11 24 27 29 38 40 33 23 27 33 18 16 19 23 23 23 22
29 27 24 24 26 28 28 25 24 26 25 30 35 38 36 29 25 35 29 30 27 25 21 21 20 12 5 11 6 12 11 32 30 32 31 37 29 23 25 32 18 16 16 21 21 21 21
30 30 29 26 25 27 28 28 24 23 23 25 30 36 38 28 22 31 27 30 26 27 25 25 21 8 25 30 24 23 29 36 38 37 36 23 19 20 24 27 19 15 14 18 21 22 19
28 31 32 32 28 26 27 29 28 24 21 21 24 29 35 30 26 25 31 27 32 31 31 25 29 29 31 26 30 38 27 26 29 32 24 17 21 27 24 28 23 19 12 11 18 19 18
25 29 31 33 33 30 26 26 28 27 23 20 21 23 27 32 25 26 27 26 24 26 27 23 20 24 22 25 29 32 28 23 22 25 19 22 25 29 26 27 21 14 16 11 15 18 15
22 25 28 31 33 34 31 25 25 26 25 24 21 18 19 23 28 26 30 35 35 32 30 30 27 30 26 26 25 25 27 25 17 24 23 22 24 28 27 16 18 16 18 15 14 16 16
21 22 24 28 31 33 34 31 25 24 25 24 22 19 16 15 16 18 27 29 35 31 31 25 22 27 26 25 25 27 22 23 21 25 21 21 25 21 17 10 19 14 16 13 11 11 14
21 22 22 24 28 31 33 34 28 24 23 24 23 21 17 13 11 10 11 23 28 29 30 26 23 21 23 20 25 22 21 22 18 17 13 19 19 19 19 22 19 16 17 14 9 11 11
20 21 22 23 25 28 31 33 31 26 23 24 24 22 17 12 9 7 6 5 11 13 12 16 15 16 18 21 23 22 19 21 21 16 18 19 19 22 18 23 19 21 14 11 9 9 4
18 20 21 22 23 25 28 30 33 28 23 24 24 24 20 16 9 6 7 6 3 3 5 6 14 13 14 12 16 14 12 16 16 13 11 16 17 17 15 15 17 14 11 8 8 7 5
17 18 20 21 22 23 25 27 31 29 26 24 24 24 22 17 12 8 7 6 7 4 6 6 11 14 11 13 15 12 14 14 12 12 17 18 14 11 12 11 8 13 11 8 5 3 2
15 16 17 19 20 22 23 24 26 28 27 26 24 23 23 19 15 11 8 5 5 8 5 7 13 13 13 14 13 12 9 6 7 10 16 13 10 10 10 12 10 9 11 4 3 1 4
13 14 16 17 18 19 21 22 21 23 25 28 24 23 21 21 17 13 10 9 11 8 9 11 13 9 11 14 12 11 9 9 8 10 11 5 5 9 8 8 6 7 7 2 5 3 4
12 12 14 15 16 17 18 19 18 19 20 22 25 24 19 19 19 13 10 9 7 10 13 12 10 9 6 6 7 7 8 9 8 8 4 4 3 6 7 6 6 6 3 3 2 1 2
12 12 13 13 15 15 16 17 16 16 18 19 20 22 23 18 16 13 13 15 10 12 8 6 4 3 3 6 4 3 4 7 8 7 4 6 4 6 6 7 7 5 6 3 2 2 3
13 12 13 13 12 14 15 14 15 14 16 18 18 17 21 20 13 11 15 15 10 7 5 3 7 5 4 5 5 2 0 4 10 8 6 4 4 3 7 8 8 8 6 3 1 1 3
15 14 12 12 13 13 13 14 13 13 14 15 16 15 16 17 14 11 12 10 9 8 7 7 6 5 4 5 3 2 3 3 4 3 5 9 5 4 6 6 8 8 9 10 6 5 6
15 15 15 12 12 13 14 14 14 14 14 14 15 13 14 17 13 13 10 7 7 6 4 3 3 4 4 4 2 3 5 7 7 5 6 7 4 3 2 8 14 15 16 14 13 13 15
18 17 17 16 14 13 14 14 13 13 14 14 13 12 13 15 15 12 8 7 5 4 4 2 1 1 1 1 2 2 2 3 4 6 7 6 8 8 7 2 4 7 10 15 21 14 13
20 18 18 18 18 17 15 15 16 14 12 12 12 10 11 11 13 11 10 7 6 4 2 1 1 0 1 2 2 3 3 5 5 7 7 7 7 11 13 15 18 20 21 21 26 29 25
23 21 20 20 19 19 18 16 15 16 14 12 11 9 9 9 10 9 9 8 7 6 4 3 3 3 3 5 5 6 6 7 8 7 7 10 10 13 17 16 19 26 27 29 33 34 38
26 23 21 20 19 19 20 19 17 15 14 13 13 10 9 8 10 10 9 8 6 5 2 2 5 5 6 5 6 8 10 12 14 14 14 15 11 10 7 10 15 22 15 16 26 33 32
28 28 25 22 20 19 18 19 19 18 16 14 12 12 10 9 8 9 9 9 8 8 6 6 6 5 5 7 9 12 14 15 17 19 20 19 16 10 10 13 2 5 8 11 15 11 13
26 28 28 25 23 22 20 18 18 17 16 15 15 13 12 12 10 10 10 11 11 11 10 7 6 7 7 7 8 6 7 8 9 13 19 22 19 8 5 6 17 16 10 11 11 13 10
22 24 26 26 25 24 23 22 20 19 18 17 15 15 14 14 13 11 13 13 13 13 12 11 11 12 11 10 7 3 3 3 3 5 6 12 17 18 8 4 5 4 6 6 6 10 10
24 24 24 25 24 25 24 24 24 22 20 19 18 18 18 17 17 15 14 14 15 17 16 15 14 13 13 11 8 5 5 8 5 5 6 8 13 23 23 10 12 16 13 9 9 9 9
28 28 26 22 20 20 24 26 25 24 23 22 22 22 21 20 20 19 19 18 18 15 16 17 17 13 10 9 6 6 8 8 9 11 10 9 6 8 15 9 13 9 9 11 11 10 12
34 35 33 29 25 27 26 25 24 25 26 25 24 24 24 23 18 16 15 17 20 21 20 22 22 19 13 11 9 7 10 11 12 9 15 12 14 13 13 12 19 15 14 12 16 20 23
Wind_Direction
32 27 23 22 22 20 22 18 24 25 34 38 34 22 21 20 17 10 14 57 62 63 78 95 109 110 121 159 141 173 194 191 184 159 155 148 159 164 179 168 174 182 175 179 185 195 197
35 29 26 23 23 21 21 21 24 25 33 39 36 28 17 17 26 30 51 73 74 77 70 87 100 123 147 166 110 157 163 205 152 153 142 145 141 144 177 170 181 168 173 175 184 200 203
35 31 27 24 23 22 21 21 21 27 27 38 38 32 30 30 41 56 68 79 73 69 91 88 63 55 137 86 179 190 145 153 148 141 141 139 129 144 167 175 178 168 185 183 186 190 190
34 34 29 26 23 21 21 20 19 21 25 30 32 36 32 38 48 60 72 82 76 83 88 86 67 62 71 85 95 134 134 126 132 136 149 131 128 172 172 178 166 169 173 168 178 183 182
32 34 32 29 25 21 19 19 17 15 16 18 21 28 38 41 47 70 72 79 87 79 80 91 94 91 85 92 109 114 109 115 144 148 136 137 151 166 154 161 162 157 175 182 173 179 183
31 31 33 31 27 24 18 18 18 15 11 9 8 14 31 45 53 71 84 88 87 85 90 96 100 84 92 97 110 123 128 109 119 133 141 144 149 151 153 155 157 159 169 172 180 182 188
28 29 27 28 28 26 21 16 16 17 15 10 7 2 7 31 52 64 77 91 94 93 88 88 91 93 99 104 105 117 127 136 128 138 135 156 151 148 150 143 165 163 177 183 180 189 198
25 26 25 23 25 25 24 18 15 14 18 18 14 11 359 3 36 49 67 82 83 81 84 77 80 97 101 107 116 111 108 118 126 135 143 143 149 152 157 162 151 167 185 181 185 193 205
20 22 22 21 20 22 22 21 17 15 14 18 20 18 17 11 23 49 71 80 86 84 84 82 82 87 96 115 114 122 123 111 121 120 133 136 125 147 151 142 154 163 180 184 184 189 207
15 19 19 18 17 17 19 19 19 16 16 16 18 21 25 23 29 60 86 103 93 88 79 58 71 81 100 106 111 123 129 121 118 116 134 136 146 151 153 151 152 155 173 180 175 184 198
7 13 17 18 18 17 16 18 17 18 19 18 17 21 28 32 38 65 66 85 99 70 62 49 59 72 77 106 112 104 127 124 122 130 142 132 155 147 154 151 161 165 167 169 179 186 209
0 5 11 15 18 19 17 18 18 20 22 18 18 19 26 35 41 52 79 71 73 82 55 73 96 76 99 102 99 100 105 109 106 122 130 132 138 146 150 143 157 160 157 159 167 192 248
355 359 6 9 14 16 17 17 21 23 22 22 21 22 23 30 39 40 55 68 60 60 116 83 97 94 104 101 107 108 97 82 107 111 126 121 122 140 152 143 147 166 164 74 17 330 215
347 352 359 5 6 13 12 15 18 23 24 25 24 21 22 27 27 41 50 70 69 86 97 106 96 89 107 114 111 113 97 97 91 119 117 110 137 160 169 171 163 177 194 172 182 188 242
333 344 352 357 1 4 7 11 14 17 20 20 22 24 27 30 31 36 59 70 108 113 122 110 92 75 85 95 117 113 114 126 121 136 129 133 115 161 172 178 166 184 199 185 129 199 304
321 330 338 350 351 356 1 2 5 9 12 13 16 16 28 30 32 47 76 87 105 121 129 114 72 75 107 104 87 95 113 140 141 145 135 149 122 183 194 199 210 196 183 173 215 107 289
309 316 323 331 341 345 348 355 356 359 1 6 9 13 24 28 34 52 71 90 103 110 121 112 134 128 125 108 118 117 117 147 162 157 154 166 178 182 194 208 214 210 206 205 173 265 156
300 304 307 313 323 330 337 342 346 348 353 358 8 15 20 24 29 46 64 76 79 78 84 106 123 124 135 138 142 143 139 142 167 211 184 173 178 171 184 202 222 230 222 214 190 194 212
293 297 299 301 308 315 321 330 337 340 346 354 6 8 13 20 26 39 54 71 79 72 65 67 109 106 110 132 129 147 150 154 159 165 176 191 199 168 237 239 232 230 225 225 226 230 221
287 292 294 299 300 301 307 316 326 334 338 344 358 5 6 8 18 28 39 45 49 59 87 71 90 129 136 116 109 163 171 191 197 192 191 201 218 220 218 232 203 217 221 226 224 222 231
280 281 282 284 288 292 299 305 313 325 331 335 349 357 1 359 6 14 26 26 37 34 32 44 109 112 249 242 232 244 276 276 267 256 258 265 256 244 249 257 259 260 257 253 242 247 243
273 278 280 283 287 290 291 294 301 309 320 327 330 336 346 343 351 1 7 16 16 14 9 0 355 324 278 258 251 275 279 273 267 264 270 274 276 282 285 278 271 267 263 258 256 257 258
266 268 271 275 281 286 290 294 295 299 307 315 318 316 318 326 332 341 345 354 358 10 18 332 313 306 295 283 278 281 284 281 277 276 274 277 272 286 278 281 294 286 280 265 265 263 264
267 266 266 267 269 271 277 286 292 297 299 300 302 303 302 298 300 316 322 331 333 335 334 328 330 322 311 295 290 287 278 268 262 262 267 267 272 276 281 302 290 240 272 298 279 284 271
267 267 268 268 270 271 268 266 273 279 285 291 294 292 289 287 286 286 289 304 312 319 314 316 322 327 319 312 309 295 278 277 271 264 248 250 250 254 258 233 281 285 283 295 279 281 264
266 269 268 264 266 268 271 273 269 269 274 274 274 275 275 277 278 272 279 284 289 301 295 298 305 314 307 305 301 267 279 274 276 281 259 244 234 235 228 251 256 256 303 323 278 265 256
265 268 269 269 263 263 262 264 266 266 264 265 266 267 268 269 267 265 263 270 277 284 281 285 302 306 298 287 273 245 240 242 255 245 260 255 243 231 235 248 266 266 281 281 243 253 259
266 266 262 262 265 267 267 264 262 262 260 258 259 260 261 259 264 262 262 264 270 267 271 274 291 295 299 277 273 260 252 242 239 248 276 274 256 232 224 234 260 258 265 250 248 237 238
264 262 261 261 269 266 266 269 266 265 263 260 257 259 258 255 251 251 254 258 262 266 265 266 268 268 270 265 259 256 263 263 265 266 269 260 264 259 239 269 283 270 273 278 271 264 265